AirNav   Air Wisconsin Up To $57,000 Bonus
 
 888 users online  

25AK Honeybee Lake Aero Park Airport
Willow, Alaska, USA

GOING TO WILLOW?


FAA INFORMATION EFFECTIVE 01 DECEMBER 2022

Location

FAA Identifier: 25AK
Lat/Long: 61-42-44.0600N 150-03-47.9900W
61-42.734333N 150-03.799833W
61.7122389,-150.0633306
(estimated)
Elevation: 200 ft. / 61 m (estimated)
Variation: 24E (1995)
From city: 1 mile N of WILLOW, AK
Time zone: UTC -9 (UTC -8 during Daylight Saving Time)
Zip code: 99688

Airport Operations

Airport use: Private use. Permission required prior to landing
Activation date: 03/2000
Control tower: no
ARTCC: ANCHORAGE CENTER
FSS: KENAI FLIGHT SERVICE STATION [907-283-7211]
Attendance: UNATNDD
Pattern altitude: TRAFFIC PATTERN SHALL REMAIN WEST OF THE PARKS HIGHWAY.
Wind indicator: yes
Segmented circle: no

Airport Communications

CTAF/UNICOM: 122.8
WX AWOS-3P at IYS (17 nm SE): 135.25 (907-373-3801)

Nearby radio navigation aids

VOR radial/distance  VOR name  Freq  Var
BGQr323/9.0BIG LAKE VORTAC112.5019E
TEDr337/32.8ANCHORAGE VOR/DME113.1518E
TKAr159/35.2TALKEETNA VOR/DME116.2019E

 
NDB name  Hdg/Dist  Freq  Var  ID
PETERS CREEK163/37.130516EPEE .--. . .

Airport Services

Runway Information

Runway 4/22

Dimensions: 2000 x 30 ft. / 610 x 9 m
Surface: gravel
RUNWAY 4  RUNWAY 22
Traffic pattern: rightleft

Runway 15/33

Dimensions: 1200 x 30 ft. / 366 x 9 m
Surface: gravel
RUNWAY 15  RUNWAY 33
Traffic pattern: leftright

Airport Ownership and Management from official FAA records

Ownership: Privately-owned
Owner: HONEYBEE LAKE AERO PARK OWNERS ASOC
PO BOX 957
WILLOW, AK 99688
Phone (907) 495-3674
PRESIDENT: JEFF BERTRAND
Manager: MIKE FRAHM
PO BOX 957
WILLOW, AK 99688
Phone 907-495-3674

Airport Operational Statistics

Aircraft based on the field: 7
Single engine airplanes: 7
    

Additional Remarks

OWNER DESIRES ARPT NOT BE CHARTED.

Instrument Procedures

There are no published instrument procedures at 25AK.

Some nearby airports with instrument procedures:

PAUO - Willow Airport (3 nm N)
PAGQ - Big Lake Airport (13 nm SE)
PAWS - Wasilla Airport (17 nm SE)
PAED - Elmendorf Air Force Base (29 nm S)
PAAQ - Warren "Bud" Woods Palmer Municipal Airport (29 nm E)
 
Loc | Ops | Rwys | IFR | FBO | Links
Com | Nav | Svcs | Stats | Notes

Crowley Maritime Corporation
 
Area around 25AK (Honeybee Lake Aero Park Airport)
 
Road maps at: MapQuest Bing Google
 
Aerial photo
No photo
 
Sectional chart

 
Airport distance calculator
Flying to Honeybee Lake Aero Park Airport? Find the distance to fly.

From to 25AK

Sunrise and sunset
Times for 03-Dec-2022
 Local
(UTC-9)
 Zulu
(UTC)
Morning civil twilight08:5617:56
Sunrise09:5618:56
Sunset15:4400:44
Evening civil twilight16:4401:44

Current date and time
Zulu (UTC)  03-Dec-2022 17:00:58
Local (UTC-9)  03-Dec-2022 08:00:58
 
METAR
TAF
PAAQ 
29nm E 
031127Z 0312/0412 VRB03KT P6SM VCFG SCT002 BKN120 FM032100 VRB03KT P6SM SCT200
PAED 
29nm S 
031400Z 0314/0420 VRB04KT 9999 FEW003 FEW080 BKN120 QNH3031INS BECMG 0320/0321 VRB06KT 9999 BKN070 OVC100 610806 QNH3031INS BECMG 0408/0409 04006KT 9999 FEW080 SCT120 QNH3032INS BECMG 0413/0414 05008KT 9999 FEW025 FEW200 QNH3030INS TXM05/0323Z TNM09/0314Z
PANC 
33nm S 
031127Z 0312/0418 VRB04KT P6SM VCFG FEW002 SCT100 FM032100 03005KT P6SM SCT200
PATK 
35nm N 
031127Z 0312/0412 VRB04KT P6SM BKN120
NOTAMs
Click for the latest NOTAMs
NOTAMs are issued by the DoD/FAA and will open in a separate window not controlled by AirNav.

 

 
 

Would you like to see your business listed on this page?

 If your business provides an interesting product or service to pilots, flight crews, aircraft, or users of the Honeybee Lake Aero Park Airport, you should consider listing it here.  To start the listing process, click on the button below
 
Add a business
 

Other Pages about Honeybee Lake Aero Park Airport

Update a link
 
Copyright © AirNav, LLC. All rights reserved. Privacy Policy  Contact